This is the latest recevied weather packets stored in our database for station/object DL2ARH-7. If no packets are shown the sender has not sent any weather packets the latest 10 day(s).
| Time | Temp. | Humidity | Pressure | Rain* | Wind** | Luminosity | Snow |
|---|---|---|---|---|---|---|---|
| 1788090747 | 78° F | 11% | 760 mmHg | 0 in | - | - | - |
| 1788090680 | 79° F | 11% | 760 mmHg | 0 in | - | - | - |
| 1788090547 | 78° F | 12% | 760 mmHg | 0 in | - | - | - |
| 1788090346 | 78° F | 13% | 760 mmHg | 0 in | - | - | - |
| 1788090278 | 78° F | 13% | 760 mmHg | 0 in | - | - | - |
| 1788090212 | 78° F | 13% | 759.9 mmHg | 0 in | - | - | - |
| 1788090145 | 87° F | 13% | 760 mmHg | 0 in | - | - | - |
| 1788090078 | 78° F | 13% | 759.9 mmHg | 0 in | - | - | - |
| 1788090012 | 78° F | 14% | 760 mmHg | 0 in | - | - | - |
| 1788089944 | 78° F | 14% | 759.9 mmHg | 0 in | - | - | - |
| 1788089880 | 78° F | 15% | 759.9 mmHg | 0 in | - | - | - |
| 1788089810 | 78° F | 15% | 760 mmHg | 0 in | - | - | - |
| 1788089745 | 115° F | 15% | 759.8 mmHg | 0 in | - | - | - |
| 1788089676 | 78° F | 16% | 759.9 mmHg | 0 in | - | - | - |
| 1788089608 | 78° F | 16% | 759.8 mmHg | 0 in | - | - | - |
| 1788089542 | 77° F | 17% | 759.8 mmHg | 0 in | - | - | - |
| 1788089475 | 115° F | 17% | 759.7 mmHg | 0 in | - | - | - |
| 1788089407 | 77° F | 17% | 759.7 mmHg | 0 in | - | - | - |
| 1788089341 | 77° F | 18% | 759.8 mmHg | 0 in | - | - | - |
| 1788089274 | 77° F | 18% | 759.7 mmHg | 0 in | - | - | - |
| 1788089141 | 77° F | 19% | 759.9 mmHg | 0 in | - | - | - |
| 1788089076 | 77° F | 19% | 760 mmHg | 0 in | - | - | - |
| 1788089007 | 76° F | 19% | 759.9 mmHg | 0 in | - | - | - |
| 1788088940 | 76° F | 19% | 759.9 mmHg | 0 in | - | - | - |
| 1788088875 | 76° F | 19% | 759.8 mmHg | 0 in | - | - | - |
* Rain latest hour (hover to see other rain measurements)
** Current wind speed in m/s (hover to see current wind gust speed)